Salem, OR

7:35 AM PDT on May 30, 2017 (GMT -0700)
McNary

Weather History for KSLE - November, 2014

Change the Weather History Date:

Sunday, November 2, 2014

  Actual Average Record
Temperature  
Mean Temperature 49 °F 48 °F  
Max Temperature 53 °F 57 °F 72 °F (1970)
Min Temperature 45 °F 40 °F 13 °F (1936)
Degree Days  
Heating Degree Days 16 16  
Month to date heating degree days 33 32  
Since 1 July heating degree days 242 564  
Cooling Degree Days 0 0  
Month to date cooling degree days 0 0  
Year to date cooling degree days 605 290  
Moisture  
Dew Point 46 °F    
Average Humidity 88    
Maximum Humidity 93    
Minimum Humidity 83    
Precipitation  
Precipitation 0.06 in 0.16 in 1.66 in (1984)
Month to date precipitation 0.07 0.32  
Year to date precipitation 29.89 26.63  
Sea Level Pressure  
Sea Level Pressure 30.17 in    
Wind  
Wind Speed 11 mph (SSE)    
Max Wind Speed 17 mph    
Max Gust Speed 25 mph    
Visibility 8 miles    
Events Rain    
T = Trace of Precipitation, MM = Missing Value Source: NWS Daily Summary

Daily Weather History Graph

Daily Weather History Graph

Search for Another Location

Airport or City:

Trip Planner

Search our weather history database for the weather conditions in past years. The results will help you decide how hot, cold, wet, or windy it might be!

Date:

Astronomy

Nov. 02, 2014 Rise Set
Actual Time 6:51 AM PST 4:58 PM PST
Civil Twilight 6:21 AM PST 5:29 PM PST
Nautical Twilight 5:46 AM PST 6:03 PM PST
Astronomical Twilight 5:12 AM PST 6:38 PM PST
Moon 2:45 PM PST (11/2) 1:48 AM PST (11/2)
Length of Visible Light 11h 08m
Length of Day
10h 06m
Waxing Gibbous, 79% of the Moon is Illuminated
Nov 2
Waxing Gibbous
Nov 6
Full
Nov 14
Last Quarter
Nov 22
New
Nov 29
First Quarter

Hourly Weather History & Observations

Time (PST) Temp. Windchill Dew Point Humidity Pressure Visibility Wind Dir Wind Speed Gust Speed Precip Events Conditions
12:10 AM 43.0 °F 38.8 °F 41.0 °F 93% 30.11 in 1.2 mi SSE 6.9 mph - N/A   Partly Cloudy
12:13 AM 44.1 °F 40.8 °F 42.1 °F 93% 30.11 in 2.5 mi SSE 5.8 mph - N/A   Partly Cloudy
12:20 AM 43.0 °F 41.3 °F 42.1 °F 97% 30.11 in 5.0 mi SSE 3.5 mph - N/A   Scattered Clouds
12:33 AM 46.0 °F 43.1 °F 44.1 °F 93% 30.12 in 2.5 mi SSE 5.8 mph - N/A   Mostly Cloudy
12:41 AM 46.0 °F 43.9 °F 45.0 °F 96% 30.12 in 4.0 mi SSE 4.6 mph - N/A   Overcast
12:56 AM 46.0 °F 43.9 °F 45.0 °F 96% 30.12 in 4.0 mi SSE 4.6 mph - N/A   Overcast
1:06 AM 46.0 °F 43.9 °F 45.0 °F 96% 30.12 in 5.0 mi SSE 4.6 mph - N/A   Overcast
1:24 AM 46.0 °F 43.1 °F 45.0 °F 96% 30.13 in 2.5 mi SSE 5.8 mph - N/A   Overcast
1:39 AM 46.0 °F 43.1 °F 45.0 °F 96% 30.13 in 5.0 mi SSE 5.8 mph - N/A   Overcast
1:56 AM 46.0 °F 43.1 °F 45.0 °F 96% 30.14 in 7.0 mi SSE 5.8 mph - N/A   Overcast
1:56 AM 46.0 °F 43.1 °F 45.0 °F 96% 30.15 in 10.0 mi South 5.8 mph - N/A   Overcast
2:21 AM 45.0 °F 42.6 °F 44.1 °F 97% 30.16 in 10.0 mi South 4.6 mph - N/A   Scattered Clouds
2:56 AM 46.0 °F 44.8 °F 45.0 °F 96% 30.17 in 10.0 mi South 3.5 mph - N/A   Overcast
3:24 AM 46.9 °F - 45.0 °F 93% 30.16 in 10.0 mi SE 8.1 mph - N/A   Overcast
3:56 AM 48.0 °F - 45.0 °F 89% 30.17 in 10.0 mi South 6.9 mph - N/A   Overcast
4:31 AM 48.0 °F - 45.0 °F 89% 30.17 in 10.0 mi SSE 6.9 mph - N/A   Overcast
4:56 AM 48.0 °F - 45.0 °F 89% 30.18 in 10.0 mi South 8.1 mph - N/A   Overcast
5:56 AM 48.0 °F - 45.0 °F 89% 30.19 in 10.0 mi South 11.5 mph - N/A   Overcast
6:56 AM 48.9 °F - 45.0 °F 86% 30.19 in 10.0 mi South 11.5 mph - 0.00 in Rain Light Rain
7:56 AM 48.9 °F - 46.0 °F 90% 30.20 in 10.0 mi South 10.4 mph - 0.00 in Rain Light Rain
8:56 AM 50.0 °F - 46.9 °F 89% 30.21 in 10.0 mi South 10.4 mph - 0.01 in Rain Light Rain
9:56 AM 51.1 °F - 46.9 °F 86% 30.21 in 10.0 mi South 13.8 mph - 0.00 in   Overcast
10:56 AM 53.1 °F - 48.0 °F 83% 30.22 in 10.0 mi South 13.8 mph - N/A   Overcast
11:13 AM 52.0 °F - 48.9 °F 89% 30.21 in 10.0 mi South 11.5 mph - 0.00 in Rain Light Rain
11:56 AM 53.1 °F - 48.0 °F 83% 30.21 in 10.0 mi South 12.7 mph - 0.00 in   Overcast
12:56 PM 53.1 °F - 48.0 °F 83% 30.20 in 10.0 mi SSE 16.1 mph - N/A   Overcast
1:56 PM 53.1 °F - 48.9 °F 86% 30.19 in 7.0 mi SSE 12.7 mph - 0.00 in Rain Light Rain
2:56 PM 52.0 °F - 48.9 °F 89% 30.19 in 8.0 mi SSE 11.5 mph - 0.00 in Rain Light Rain
3:56 PM 53.1 °F - 48.9 °F 86% 30.18 in 10.0 mi SSE 11.5 mph - 0.03 in Rain Light Rain
4:56 PM 52.0 °F - 48.9 °F 89% 30.17 in 9.0 mi SSE 12.7 mph - 0.02 in Rain Light Rain
5:56 PM 52.0 °F - 48.0 °F 86% 30.17 in 10.0 mi SSE 12.7 mph - 0.00 in   Overcast
6:56 PM 52.0 °F - 48.0 °F 86% 30.17 in 10.0 mi SSE 10.4 mph - N/A   Overcast
7:56 PM 51.1 °F - 46.9 °F 86% 30.17 in 10.0 mi SSE 11.5 mph - N/A   Overcast
8:56 PM 52.0 °F - 46.9 °F 83% 30.18 in 10.0 mi SSE 15.0 mph - 0.00 in   Overcast
9:49 PM 52.0 °F - 46.9 °F 83% 30.18 in 10.0 mi SSE 10.4 mph - N/A   Overcast
9:56 PM 52.0 °F - 46.9 °F 83% 30.18 in 10.0 mi SSE 11.5 mph - N/A   Overcast
10:20 PM 52.0 °F - 48.0 °F 86% 30.18 in 8.0 mi SSE 10.4 mph - N/A   Overcast
10:33 PM 51.1 °F - 48.0 °F 89% 30.18 in 10.0 mi SSE 10.4 mph - N/A   Overcast
10:56 PM 52.0 °F - 48.0 °F 86% 30.18 in 10.0 mi SSE 12.7 mph - N/A   Overcast